Location: Caltech
(34.1382°N, 118.1253°W)
Time: 05:38:04
(UTC-07:00)

Cosmos 2251 Rocket - Visible Passes

Search period start: 26 May 2016 00:00
Search period end: 05 June 2016 00:00
Orbit: 764 x 793 km, 74.0° (Epoch: 26 May)

Date Brightness Start Highest point End Pass type
(mag) Time Alt. Az. Time Alt. Az. Time Alt. Az.
26 May 5.6 21:12:25 10° SW 21:17:04 30° WNW 21:21:46 10° N visible
27 May 4.6 20:37:58 10° SW 20:43:06 50° WNW 20:48:19 10° N visible
29 May 7.1 04:57:27 10° NNE 04:59:46 13° ENE 05:02:04 10° E visible
29 May 6.7 21:15:06 10° W 21:18:07 15° WNW 21:21:09 10° NNW visible
30 May 6.2 20:39:45 10° WSW 20:44:01 24° WNW 20:48:20 10° N visible
01 Jun 6.1 04:56:25 10° N 05:00:53 26° ENE 05:05:17 10° ESE visible
02 Jun 6.6 04:23:29 10° NNE 04:26:47 16° ENE 04:30:04 10° E visible
02 Jun 7.3 20:43:17 10° W 20:45:09 12° WNW 20:47:01 10° NW visible
04 Jun 4.5 04:56:30 10° N 05:01:46 54° ENE 05:06:58 10° SSE visible
